Weather History for Triuchirapalli, India

Change the Weather History Date:

Wednesday, October 5, 2011

  Actual Average Record
Temperature  
Mean Temperature 84 °F -  
Max Temperature 94 °F 86 °F 100 °F (2014)
Min Temperature 75 °F 76 °F 75 °F (1999)
Cooling Degree Days 20    
Growing Degree Days 34 (Base 50)    
Moisture  
Dew Point 74 °F    
Average Humidity 69    
Maximum Humidity 86    
Minimum Humidity 43    
Precipitation  
Precipitation 0.00 in - - ()
Sea Level Pressure  
Sea Level Pressure 29.81 in    
Wind  
Wind Speed 2 mph ()    
Max Wind Speed 9 mph    
Max Gust Speed -    
Visibility 4.1 miles    
Events      
Averages and records for this station are not official NWS values.
T = Trace of Precipitation, MM = Missing Value Source: Averaged Metar Reports

Daily Weather History Graph

Daily Weather History Graph

Search for Another Location

Airport:

Trip Planner

Search our weather history database for the weather conditions in past years. The results will help you decide how hot, cold, wet, or windy it might be!

Date:

Astronomy

Oct. 05, 2011 Rise Set
Actual Time 6:03 AM IST 6:03 PM IST
Civil Twilight 5:42 AM IST 6:24 PM IST
Nautical Twilight 5:18 AM IST 6:49 PM IST
Astronomical Twilight 4:53 AM IST 7:13 PM IST
Moon 1:25 PM IST (10/5) No Moon Set
Length of Visible Light 12h 41m
Length of Day
11h 59m
Waxing Gibbous, 62% of the Moon is Illuminated
Oct 5
Waxing Gibbous
Oct 12
Full
Oct 20
Last Quarter
Oct 27
New
Nov 2
First Quarter

Hourly Weather History & Observations

Time (IST) Temp. Heat Index Dew Point Humidity Pressure Visibility Wind Dir Wind Speed Gust Speed Precip Events Conditions
12:10 AM 78.8 °F - 73.4 °F 83% 29.83 in 3.7 mi SSE 2.3 mph - N/A   Mostly Cloudy
12:40 AM 78.8 °F - 73.4 °F 83% 29.80 in 3.7 mi Calm Calm - N/A   Mostly Cloudy
1:10 AM 78.8 °F - 73.4 °F 83% 29.80 in 3.7 mi Calm Calm - N/A   Mostly Cloudy
1:40 AM 78.8 °F - 73.4 °F 83% 29.80 in 3.7 mi Calm Calm - N/A   Mostly Cloudy
2:10 AM 78.8 °F - 73.4 °F 83% 29.77 in 3.7 mi Calm Calm - N/A   Scattered Clouds
2:30 AM 78 °F - 72 °F 78% 29.78 in 2 mi Calm Calm - -   Haze
2:40 AM 77.0 °F - 71.6 °F 83% 29.77 in 3.7 mi Calm Calm - N/A   Mostly Cloudy
3:10 AM 77.0 °F - 71.6 °F 83% 29.77 in 3.7 mi Calm Calm - N/A   Mostly Cloudy
3:40 AM 77.0 °F - 71.6 °F 83% 29.80 in 3.7 mi Calm Calm - N/A   Mostly Cloudy
4:10 AM 77.0 °F - 71.6 °F 83% 29.80 in 3.7 mi Calm Calm - N/A   Mostly Cloudy
5:30 AM 76 °F - 72 °F 86% 29.81 in 1 mi Calm Calm - -   Haze
6:40 AM 77.0 °F - 71.6 °F 83% 29.83 in 2.5 mi Calm Calm - N/A   Haze
7:10 AM 78.8 °F - 71.6 °F 78% 29.83 in 2.5 mi Calm Calm - N/A   Haze
7:40 AM 80.6 °F 84.6 °F 71.6 °F 74% 29.86 in 2.5 mi NW 4.6 mph - N/A   Haze
8:30 AM 82 °F - 73 °F 69% 29.87 in 6 mi NW 6.9 mph - -   Haze
9:10 AM 84.2 °F 90.9 °F 73.4 °F 70% 29.86 in 4.3 mi NW 4.6 mph - N/A   Scattered Clouds
9:40 AM 86.0 °F 93.4 °F 73.4 °F 66% 29.86 in 5.0 mi WNW 2.3 mph - N/A   Scattered Clouds
10:10 AM 87.8 °F 95.6 °F 73.4 °F 62% 29.86 in 5.0 mi NW 2.3 mph - N/A   Partly Cloudy
10:40 AM 87.8 °F 95.6 °F 73.4 °F 62% 29.86 in 5.0 mi WNW 4.6 mph - N/A   Partly Cloudy
11:10 AM 89.6 °F 98.2 °F 73.4 °F 59% 29.86 in 5.0 mi NW 4.6 mph - N/A   Partly Cloudy
11:30 AM 89 °F - 73 °F 51% 29.83 in 2 mi WNW 4.6 mph - -   Haze
11:40 AM 89.6 °F 98.2 °F 73.4 °F 59% 29.83 in 5.0 mi WNW 3.5 mph - N/A   Partly Cloudy
12:10 PM 91.4 °F 100.1 °F 73.4 °F 55% 29.83 in 5.0 mi WNW 5.8 mph - N/A   Partly Cloudy
12:40 PM 93.2 °F 102.4 °F 73.4 °F 52% 29.80 in 6.2 mi WNW 2.3 mph - N/A   Partly Cloudy
1:10 PM 93.2 °F 102.4 °F 73.4 °F 52% 29.77 in 6.2 mi West 2.3 mph - N/A   Partly Cloudy
1:40 PM 95.0 °F 103.2 °F 71.6 °F 47% 29.77 in 6.2 mi West 2.3 mph - N/A   Partly Cloudy
2:10 PM 93.2 °F 102.4 °F 73.4 °F 52% 29.74 in 6.2 mi WNW 2.3 mph - N/A   Partly Cloudy
2:30 PM 94 °F - 74 °F 43% 29.74 in 6 mi West 2.3 mph - -   Scattered Clouds
3:10 PM 95.0 °F 104.5 °F 73.4 °F 49% 29.74 in 6.2 mi West 4.6 mph - N/A   Scattered Clouds
4:10 PM 93.2 °F 102.4 °F 73.4 °F 52% 29.71 in 6.2 mi SE 2.3 mph - N/A   Scattered Clouds
5:30 PM 91 °F - 73 °F 47% 29.73 in 6 mi East 4.6 mph - -   Partly Cloudy
6:10 PM 91.4 °F 100.1 °F 73.4 °F 55% 29.74 in 3.7 mi East 3.5 mph - N/A   Scattered Clouds
7:40 PM 89.6 °F 98.2 °F 73.4 °F 59% 29.77 in 3.7 mi ESE 3.5 mph - N/A   Scattered Clouds
8:10 PM 87.8 °F 97.6 °F 75.2 °F 66% 29.83 in 3.7 mi SSE 5.8 mph - N/A   Partly Cloudy
8:30 PM 85 °F - 75 °F 66% 29.84 in 2 mi SSE 9.2 mph - -   Scattered Clouds
8:40 PM 86.0 °F 95.1 °F 75.2 °F 70% 29.83 in 3.7 mi SSE 8.1 mph - N/A   Partly Cloudy
9:10 PM 84.2 °F 92.3 °F 75.2 °F 74% 29.86 in 3.7 mi SSE 8.1 mph - N/A   Partly Cloudy
9:40 PM 84.2 °F 94.1 °F 77.0 °F 79% 29.86 in 3.7 mi South 6.9 mph - N/A   Scattered Clouds
10:10 PM 82.4 °F 90.9 °F 77.0 °F 84% 29.86 in 3.7 mi South 5.8 mph - N/A   Scattered Clouds
10:40 PM 82.4 °F 90.9 °F 77.0 °F 84% 29.86 in 3.7 mi SSE 4.6 mph - N/A   Scattered Clouds
11:10 PM 82.4 °F 90.9 °F 77.0 °F 84% 29.86 in 3.7 mi South 4.6 mph - N/A   Scattered Clouds
11:30 PM 82 °F - 77 °F 82% 29.86 in 2 mi South 4.6 mph - -   Scattered Clouds
11:40 PM 82.4 °F 90.9 °F 77.0 °F 84% 29.86 in 3.7 mi SSW 5.8 mph - N/A   Scattered Clouds